User: anonymous   Login
Location: Unspecified
(0.0000°N, 0.0000°E)
Time: 16:16:14
(UTC+00:00)
Language:

A-11 Canister half - Orbit

View from above orbital plane
View from above orbital plane
View from above satellite
View from above satellite

Ground track
Ground track

The orbit data is extracted from the following two-line orbital elements,

1 00051U 60009C   21101.80824255 -.00000091  00000-0 -56714-4 0  9999
2 00051  47.2115 144.3880 0106797 328.8380  30.6107 12.18274309700469
Epoch (UTC): 11 April 2021 19:23:52
Eccentricity: 0.0106797
inclination: 47.2115°
perigee height: 1515 km
apogee height: 1685 km
right ascension of ascending node: 144.3880°
argument of perigee: 328.8380°
revolutions per day: 12.18274309
mean anomaly at epoch: 30.6107°
orbit number at epoch: 70046

The dashed part of the orbit path shows where the satellite is in the earth's shadow,  

DLR